Showing default

IXPE, 49954

Orbit data source: Space-Track

IXPE, 49954 is a payload satellite owned by NASA MSFC (US) in LEO that was launched on Thu, 09 Dec 2021 UTC via an FALCON 9 launch vehicle from the Air Force Eastern Test Range (AFETR). Payload-class satellites include a variety of spacecraft equipped with specific instruments for various scientific and technological missions. These include communications satellites like Starlink; space stations such as the ISS; scientific satellites like the Hubble; Earth observation satellites from companies like Planet Labs, Umbra, and HawkEye 360; GPS; miniature CubeSats for education and research; and military/defense satellites.

Not visible in the next 10 days
Identifier
49954, 2021-121A
Orbit
LEO
Country
Flag of USUS
Related business
Manufacturer
Ball
Mission
Operational Civil Astronomy
Bus & Motor
BCP, Unknown motor
Mass
330 kg wet, 330 kg dry
Launch date (UTC)
2021-12-09 (5 years ago)
Launch vehicle
FALCON 9
Launch site
Air Force Eastern Test Range (AFETR)
Object type
Payload
Rocket body
Debris
Shape & HBR
Box + 1 Truss, 2.6 m
Radar Cross Section
2.805 m², Large (>1 m²)

Expand to show TLE details & history
Last TLE update: 2 days ago

TLE from 2 days ago
0 IXPE
1 49954U 21121A   26171.41668980  .00008579  00000-0  45370-3 0  9998
2 49954   0.2296 293.4932 0007192 124.1849 157.3401 15.10273055  5456
Epoch: 2026-06-20T10:00Z
TLE epoch observation values (Epoch: 2026-06-20T10:00:01.998Z)
Latitude
-0.22619°
Longitude
156.40992°
Altitude
536.813 km
Speed
7.595 km/s
True Right ascension
14h 20m 11s
True Declination
0° 13' 29"
Sunlit
Object was in full shadow at epoch
Visualization orbit readout
Latitude
Unknown
Longitude
Unknown
Altitude
Unknown
Speed
Unknown
Apparent Right ascension
Unknown
Apparent Declination
Unknown
Sunlit
N/A
Visualization observer readout
Local Sidereal Time
21:33:14
Azimuth
Unknown
Elevation
Unknown
Doppler factor
Unknown
Orbital elements
Apogee altitude
546.722 km
Perigee altitude
536.769 km
Semi-major axis
6,919.882 km
Eccentricity
0.00072
Inclination
0.2296°
RAAN
293.4932°
Arg. of periapsis
124.1849°
True anomaly
157.37182°
Mean anomaly
157.3401°
Eccentric anomaly
157.35596°
Mean motion
3.77047 °/min
Orbital period
95.48 mins
BSTAR
0.0004537
Loading maneuver chart data...
Computing Atmospheric mass density...
Loading historical data...
Loading historical data...
Loading historical data...
Loading historical data...
Loading historical data...
Loading historical data...
Loading historical data...
Other satellites on launch #121 in the year 2021 (2021-12-09 UTC)

Documentation

Showing up to 5 results
|